Location: Newark
(48.5156°N, 1.8989°W)
Time: 23:09:25
(UTC+00:00)

A-11 Canister half - Visible Passes

Search period start: 13 November 2019 00:00
Search period end: 23 November 2019 00:00
Orbit: 1527 x 1682 km, 47.3° (Epoch: 12 November)

Date Brightness Start Highest point End Pass type
(mag) Time Alt. Az. Time Alt. Az. Time Alt. Az.
13 Nov 9.2 16:50:16 10° W 17:00:00 83° S 17:09:27 10° E visible
13 Nov 9.4 18:55:25 10° WNW 19:04:37 55° SSW 19:10:15 25° SE visible
13 Nov 10.5 21:01:35 10° W 21:07:58 21° SW 21:08:35 21° SW visible
14 Nov 9.4 18:33:45 10° WNW 18:43:02 57° SSW 18:50:17 17° SE visible
14 Nov 10.5 20:39:47 10° W 20:46:26 22° SW 20:48:38 20° SSW visible
15 Nov 9.5 18:12:05 10° WNW 18:21:26 58° SSW 18:30:27 10° SE visible
15 Nov 10.5 20:18:01 10° W 20:24:55 23° SW 20:28:49 18° SSW visible
16 Nov 9.5 17:50:26 10° WNW 17:59:50 60° SSW 18:08:58 10° SE visible
16 Nov 10.5 19:56:15 10° W 20:03:22 25° SW 20:09:10 14° S visible
17 Nov 9.5 17:28:46 10° WNW 17:38:14 62° SSW 17:47:25 10° SE visible
17 Nov 10.5 19:34:30 10° W 19:41:51 26° SW 19:49:03 10° S visible
18 Nov 9.5 17:07:06 10° WNW 17:16:38 63° SSW 17:25:51 10° SE visible
18 Nov 10.5 19:12:46 10° W 19:20:18 27° SW 19:27:42 10° S visible
19 Nov 9.5 16:45:26 10° WNW 16:55:01 65° SSW 17:04:18 10° SE visible
19 Nov 10.5 18:51:02 10° W 18:58:45 29° SW 19:06:20 10° S visible
20 Nov 10.6 18:29:18 10° W 18:37:13 30° SW 18:44:56 10° SSE visible
21 Nov 10.6 18:07:35 10° WNW 18:15:40 32° SW 18:23:33 10° SSE visible
22 Nov 10.6 17:45:52 10° WNW 17:54:07 33° SW 18:02:08 10° SSE visible
